Date String (YYYY-MM-DD hh:mm:ss) UTC,Instrument flags,absolute air pressure of the measurement (hPa),sample flow rate (lpm),inlet stack bypass flow (lpm),air temperature of the measurement (°C),ambient temperature measured by the external sensor (°C),aerosol sample conditioner tube jacket temperature (°C),OPC LED temperature (°C),internal box temperature (°C),relative humidity of the measurement (%),span deviation,mass concentration of particles derived from Lorenz-Mie calculation of OPC scattering (μg/m³),mass concentration of particles derived from Lorenz-Mie calculation of OPC scattering (μg/m³),mass concentration of particles derived from Lorenz-Mie calculation of OPC scattering (μg/m³)
DateTimeUTC,F1_M11,P_M11,Q1_M11,Q2_M11,T1_M11,T2_M11,T3_M11,T4_M11,T5_M11,U1_M11,ZSPAN_M11,X2_M11,X0_M11,X1_M11
2024-06-14 03:00:00,SystemResetWarning,0832.7,5.00,000.00,029.3,029.0,000.0,037.2,031.2,029.5,0000.0,0008.26,0053.52,0004.52
2024-06-14 03:01:00,SystemResetWarning,0832.6,5.00,000.00,029.2,027.5,000.0,037.3,030.5,029.6,0000.0,0008.40,0052.30,0004.53
2024-06-14 03:02:00,SystemResetWarning,0832.7,5.01,000.00,028.8,025.3,000.0,037.3,029.5,030.3,0000.0,0008.41,0051.56,0004.55
2024-06-14 03:03:00,SystemResetWarning,0832.7,5.02,000.00,028.5,025.2,000.0,037.3,029.2,030.9,0000.0,0008.41,0051.98,0004.56
2024-06-14 03:04:00,SystemResetWarning,0832.6,4.99,000.00,028.4,025.7,000.0,037.2,029.5,031.0,0000.0,0008.49,0052.09,0004.57
2024-06-14 03:05:00,SystemResetWarning,0832.6,5.00,000.00,028.4,026.2,000.0,037.1,029.8,030.9,0000.0,0008.60,0049.19,0004.58
2024-06-14 03:06:00,SystemResetWarning,0832.6,5.00,000.00,028.5,026.6,000.0,037.0,030.0,030.9,0000.0,0008.59,0047.30,0004.59
2024-06-14 03:07:00,SystemResetWarning,0832.7,5.00,000.00,028.6,027.1,000.0,037.0,030.2,030.8,0000.0,0008.58,0046.96,0004.60
2024-06-14 03:08:00,SystemResetWarning,0832.7,5.00,000.00,028.6,027.5,000.0,037.0,030.4,030.7,0000.0,0008.61,0048.48,0004.63
2024-06-14 03:09:00,SystemResetWarning,0832.7,5.00,000.00,028.7,027.8,000.0,037.0,030.5,030.4,0000.0,0008.64,0048.57,0004.64
2024-06-14 03:10:00,SystemResetWarning,0832.8,5.00,000.00,028.8,028.1,000.0,037.0,030.7,030.1,0000.0,0008.55,0045.55,0004.65
2024-06-14 03:11:00,SystemResetWarning,0832.7,5.00,000.00,028.9,028.3,000.0,037.0,030.8,030.0,0000.0,0008.38,0045.65,0004.65
2024-06-14 03:12:00,SystemResetWarning,0832.9,5.00,000.00,029.0,028.5,000.0,037.0,030.9,029.7,0000.0,0008.34,0048.91,0004.63
2024-06-14 03:13:00,SystemResetWarning,0833.0,4.99,000.00,029.1,028.7,000.0,037.1,031.0,029.5,0000.0,0008.25,0051.56,0004.61
2024-06-14 03:14:00,SystemResetWarning,0833.2,5.00,000.00,029.2,028.8,000.0,037.1,031.1,029.3,0000.0,0008.17,0051.77,0004.60
2024-06-14 03:15:00,SystemResetWarning,0833.3,5.02,000.00,029.3,028.9,000.0,037.2,031.2,029.2,0000.0,0008.12,0051.91,0004.58
2024-06-14 03:16:00,SystemResetWarning,0833.1,5.00,000.00,029.4,029.0,000.0,037.3,031.3,029.1,0000.0,0008.12,0052.04,0004.57
2024-06-14 03:17:00,SystemResetWarning,0833.1,4.98,000.00,029.3,027.5,000.0,037.3,030.5,029.2,0000.0,0008.06,0053.14,0004.56
2024-06-14 03:18:00,SystemResetWarning,0833.2,5.01,000.00,028.8,025.4,000.0,037.4,029.4,029.9,0000.0,0007.99,0052.25,0004.57
2024-06-14 03:19:00,SystemResetWarning,0833.2,5.01,000.00,028.5,025.2,000.0,037.3,029.3,030.4,0000.0,0007.93,0051.06,0004.55
2024-06-14 03:20:00,SystemResetWarning,0833.2,4.99,000.00,028.4,025.7,000.0,037.2,029.5,030.6,0000.0,0007.85,0049.26,0004.54
2024-06-14 03:21:00,SystemResetWarning,0833.2,5.00,000.00,028.5,026.2,000.0,037.1,029.8,030.7,0000.0,0007.87,0049.06,0004.53
2024-06-14 03:22:00,SystemResetWarning,0833.2,5.01,000.00,028.5,026.7,000.0,037.0,030.0,030.5,0000.0,0007.98,0048.48,0004.55
2024-06-14 03:23:00,SystemResetWarning,0833.2,5.00,000.00,028.6,027.1,000.0,037.0,030.2,030.4,0000.0,0007.93,0044.38,0004.57
2024-06-14 03:24:00,SystemResetWarning,0833.2,4.99,000.00,028.7,027.5,000.0,037.0,030.4,030.2,0000.0,0007.87,0041.14,0004.58
2024-06-14 03:25:00,SystemResetWarning,0833.2,5.01,000.00,028.7,027.8,000.0,037.0,030.5,030.1,0000.0,0007.88,0040.40,0004.58
2024-06-14 03:26:00,SystemResetWarning,0833.2,4.99,000.00,028.8,028.1,000.0,037.0,030.7,030.0,0000.0,0007.89,0040.50,0004.59
2024-06-14 03:27:00,SystemResetWarning,0833.2,4.99,000.00,028.9,028.3,000.0,037.0,030.8,029.8,0000.0,0007.79,0041.60,0004.59
2024-06-14 03:28:00,SystemResetWarning,0833.2,5.00,000.00,029.0,028.5,000.0,037.1,030.9,029.6,0000.0,0007.82,0040.87,0004.59
2024-06-14 03:29:00,SystemResetWarning,0833.2,5.00,000.00,029.1,028.6,000.0,037.1,031.0,029.4,0000.0,0007.88,0042.36,0004.60
2024-06-14 03:30:00,SystemResetWarning,0833.2,5.00,000.00,029.2,028.8,000.0,037.1,031.1,029.3,0000.0,0007.87,0041.54,0004.60
2024-06-14 03:31:00,SystemResetWarning,0833.2,5.00,000.00,029.3,028.9,000.0,037.2,031.2,029.1,0000.0,0007.88,0041.63,0004.59
2024-06-14 03:32:00,SystemResetWarning,0833.3,5.00,000.00,029.4,029.0,000.0,037.3,031.3,029.0,0000.0,0008.00,0041.43,0004.59
2024-06-14 03:33:00,SystemResetWarning,0833.3,4.99,000.00,029.4,028.7,000.0,037.3,031.1,029.0,0000.0,0008.06,0040.89,0004.58
2024-06-14 03:34:00,SystemResetWarning,0833.2,5.00,000.00,029.2,026.7,000.0,037.4,030.2,029.5,0000.0,0008.10,0043.85,0004.57
2024-06-14 03:35:00,SystemResetWarning,0833.2,5.01,000.00,028.9,026.3,000.0,037.4,029.9,029.7,0000.0,0008.14,0045.08,0004.56
2024-06-14 03:36:00,SystemResetWarning,0833.2,5.02,000.00,028.8,026.6,000.0,037.4,030.0,029.8,0000.0,0008.18,0045.09,0004.54
2024-06-14 03:37:00,SystemResetWarning,0833.3,5.00,000.00,028.9,027.0,000.0,037.3,030.3,029.8,0000.0,0008.22,0043.44,0004.53
2024-06-14 03:38:00,SystemResetWarning,0833.3,5.00,000.00,028.9,027.4,000.0,037.3,030.5,029.8,0000.0,0008.23,0041.55,0004.53
2024-06-14 03:39:00,SystemResetWarning,0833.3,5.00,000.00,029.0,027.8,000.0,037.2,030.7,029.9,0000.0,0008.16,0041.23,0004.51
2024-06-14 03:40:00,SystemResetWarning,0833.4,5.00,000.00,029.0,028.1,000.0,037.2,030.8,029.8,0000.0,0008.20,0041.35,0004.50
2024-06-14 03:41:00,SystemResetWarning,0833.4,5.00,000.00,029.1,028.3,000.0,037.3,030.9,029.8,0000.0,0008.19,0041.27,0004.49
2024-06-14 03:42:00,SystemResetWarning,0833.4,5.00,000.00,029.2,028.5,000.0,037.3,031.0,029.7,0000.0,0008.16,0041.39,0004.50
2024-06-14 03:43:00,SystemResetWarning,0833.5,5.00,000.00,029.3,028.7,000.0,037.3,031.1,029.6,0000.0,0008.17,0041.33,0004.51
2024-06-14 03:44:00,SystemResetWarning,0833.4,4.99,000.00,029.3,028.9,000.0,037.4,031.2,029.5,0000.0,0008.17,0041.76,0004.50
2024-06-14 03:45:00,SystemResetWarning,0833.4,5.00,000.00,029.4,029.0,000.0,037.4,031.3,029.5,0000.0,0008.18,0043.53,0004.50
2024-06-14 03:46:00,SystemResetWarning,0833.4,5.00,000.00,029.5,029.1,000.0,037.4,031.4,029.4,0000.0,0008.18,0045.53,0004.51
2024-06-14 03:47:00,SystemResetWarning,0833.4,4.99,000.00,029.5,028.5,000.0,037.5,031.1,029.4,0000.0,0008.20,0045.94,0004.52
2024-06-14 03:48:00,SystemResetWarning,0833.4,5.00,000.00,029.2,026.2,000.0,037.6,029.9,029.8,0000.0,0008.19,0047.23,0004.54
2024-06-14 03:49:00,SystemResetWarning,0833.3,5.01,000.00,028.8,025.1,000.0,037.6,029.4,030.5,0000.0,0008.19,0048.56,0004.56
2024-06-14 03:50:00,SystemResetWarning,0833.3,5.01,000.00,028.6,025.5,000.0,037.5,029.5,030.9,0000.0,0008.19,0049.52,0004.57
2024-06-14 03:51:00,SystemResetWarning,0833.3,5.00,000.00,028.6,026.0,000.0,037.3,029.7,030.8,0000.0,0008.08,0048.22,0004.57
2024-06-14 03:52:00,SystemResetWarning,0833.4,4.99,000.00,028.6,026.5,000.0,037.2,030.0,030.7,0000.0,0008.02,0047.21,0004.58
2024-06-14 03:53:00,SystemResetWarning,0833.4,5.01,000.00,028.6,027.0,000.0,037.2,030.2,030.6,0000.0,0008.04,0046.17,0004.59
2024-06-14 03:54:00,SystemResetWarning,0833.4,5.00,000.00,028.7,027.4,000.0,037.2,030.4,030.5,0000.0,0007.99,0046.32,0004.58
2024-06-14 03:55:00,SystemResetWarning,0833.4,4.99,000.00,028.8,027.7,000.0,037.1,030.6,030.3,0000.0,0007.93,0046.56,0004.58
2024-06-14 03:56:00,SystemResetWarning,0833.4,5.00,000.00,028.9,028.0,000.0,037.1,030.7,030.0,0000.0,0007.90,0043.22,0004.58
2024-06-14 03:57:00,SystemResetWarning,0833.5,5.00,000.00,029.0,028.2,000.0,037.1,030.8,029.9,0000.0,0007.82,0040.31,0004.57
2024-06-14 03:58:00,SystemResetWarning,0833.6,5.00,000.00,029.1,028.4,000.0,037.2,030.9,029.7,0000.0,0007.75,0039.33,0004.56
2024-06-14 03:59:00,SystemResetWarning,0833.7,5.00,000.00,029.1,028.6,000.0,037.2,031.0,029.5,0000.0,0007.65,0039.06,0004.55
